Voltar ao catálogo

STARLINK-35171

AtivoComunicaçõesSSO
NORAD 65605·PAYLOAD·🇺🇸 United States

Lançado Sep 13, 2025 de Cape Canaveral Space Force Station

Loading…

Próximas Passagens (próximas 24 horas)

TLE

AtualizadoSource: CelesTrak SupGP

Época: Sep 14, 2026, 22:38 UTC

1 65605C 25207P   26257.94354167  .02292000  00000+0  11516+0 0  2573
2 65605  97.2840 320.6595 0001868  87.0276 266.5378 15.16199528    12

Acompanhe STARLINK-35171 em tempo real com AllMySat

Download on the App Store